This demonstration page uses our WeatherBlox Daily Observations layout. Learn more.

Left ArrowRight Arrow

Hourly Observations for June 14, 2021

Temp ( °F °C ) Dew Point ( °F °C ) Humidity (%) Winds ( mph kmh ) Pressure ( in mb ) Visibility ( mi km ) Precip ( " mm )
12:15 am 00:15 Clear 64 18 63 17 94 94 S 8 13 29.86 1011 10 16 N/A
12:35 am 00:35 Clear 64 18 63 17 94 94 S 5 7 29.86 1011 10 16 N/A
12:55 am 00:55 Clear 63 17 61 16 94 94 S 6 9 29.87 1011 10 16 N/A
1:15 am 01:15 Clear 63 17 61 16 94 94 S 5 7 29.87 1011 10 16 N/A
1:35 am 01:35 Clear 63 17 61 16 94 94 S 3 6 29.87 1011 10 16 N/A
1:55 am 01:55 Clear 63 17 61 16 94 94 S 5 7 29.87 1011 10 16 N/A
2:15 am 02:15 Clear 63 17 61 16 94 94 SSE 5 7 29.87 1011 10 16 N/A
2:35 am 02:35 Partly Cloudy 63 17 61 16 94 94 S 6 9 29.87 1011 10 16 N/A
2:55 am 02:55 Mostly Cloudy 61 16 61 16 100 100 N N/A 29.88 1012 10 16 N/A
3:15 am 03:15 Cloudy 61 16 61 16 100 100 N N/A 29.88 1012 10 16 N/A
3:35 am 03:35 Cloudy 63 17 59 15 88 88 S 3 6 29.88 1012 10 16 N/A
3:55 am 03:55 Cloudy 61 16 59 15 94 94 S 5 7 29.88 1012 10 16 N/A
4:15 am 04:15 Cloudy 61 16 59 15 94 94 S 7 11 29.87 1011 10 16 N/A
4:35 am 04:35 Cloudy 61 16 59 15 94 94 S 7 11 29.87 1011 10 16 N/A
4:55 am 04:55 Cloudy 61 16 59 15 94 94 S 7 11 29.87 1011 10 16 N/A
5:15 am 05:15 Cloudy 61 16 59 15 94 94 S 5 7 29.87 1011 10 16 N/A
5:35 am 05:35 Partly Cloudy 59 15 59 15 100 100 S 6 9 29.87 1011 10 16 N/A
5:55 am 05:55 Mostly Cloudy 59 15 57 14 94 94 SSW 5 7 29.87 1011 10 16 N/A
6:15 am 06:15 Cloudy 59 15 57 14 94 94 SSW 5 7 29.87 1011 10 16 N/A
6:35 am 06:35 Cloudy 57 14 57 14 100 100 WSW 5 7 29.88 1012 10 16 N/A
6:55 am 06:55 Cloudy 59 15 57 14 94 94 S 6 9 29.86 1011 10 16 N/A
7:15 am 07:15 Cloudy 59 15 57 14 94 94 SSW 5 7 29.86 1011 10 16 N/A
7:35 am 07:35 Cloudy 59 15 59 15 100 100 SW 6 9 29.86 1011 10 16 N/A
7:55 am 07:55 Cloudy 61 16 59 15 94 94 WSW 7 11 29.86 1011 10 16 N/A
8:15 am 08:15 Mostly Cloudy 63 17 59 15 88 88 WSW 5 7 29.86 1011 10 16 N/A
8:35 am 08:35 Mostly Cloudy 63 17 59 15 88 88 WSW 3 6 29.87 1011 10 16 N/A
8:55 am 08:55 Mostly Cloudy 64 18 61 16 88 88 SW 5 7 29.86 1011 10 16 N/A
9:15 am 09:15 Cloudy 64 18 61 16 88 88 SW 3 6 29.86 1011 10 16 N/A
9:35 am 09:35 Cloudy 64 18 61 16 88 88 WNW 3 6 29.86 1011 10 16 N/A
9:55 am 09:55 Partly Cloudy 68 20 61 16 78 78 N N/A 29.87 1012 10 16 N/A
10:15 am 10:15 Mostly Cloudy 68 20 61 16 78 78 W 3 6 29.87 1012 10 16 N/A
10:35 am 10:35 Cloudy 70 21 63 17 78 78 N N/A 29.87 1012 10 16 N/A
10:55 am 10:55 Partly Cloudy 70 21 63 17 78 78 NNE 3 6 29.86 1011 10 16 N/A
11:15 am 11:15 Partly Cloudy 72 22 63 17 73 73 WSW 5 7 29.86 1011 10 16 N/A
11:35 am 11:35 Mostly Cloudy 72 22 63 17 73 73 NW 5 7 29.86 1011 10 16 N/A
11:55 am 11:55 Cloudy 72 22 63 17 73 73 WNW 6 9 29.86 1011 10 16 N/A
12:15 pm 12:15 Partly Cloudy 75 24 63 17 65 65 SW 5 7 29.85 1011 10 16 N/A
12:35 pm 12:35 Partly Cloudy 77 25 63 17 61 61 WNW 8 13 29.84 1011 10 16 N/A
12:55 pm 12:55 Partly Cloudy 77 25 63 17 61 61 WNW 12 19 29.83 1010 10 16 N/A
1:15 pm 13:15 Partly Cloudy 77 25 63 17 61 61 NNW 6 9 29.82 1010 10 16 N/A
1:35 pm 13:35 Mostly Cloudy 77 25 61 16 57 57 NNW 8 13 29.81 1010 10 16 N/A
1:55 pm 13:55 Partly Cloudy 79 26 63 17 58 58 WNW 7 11 29.81 1010 10 16 N/A
2:15 pm 14:15 Partly Cloudy 81 27 63 17 54 54 WNW 13 20 29.81 1010 10 16 N/A
2:35 pm 14:35 Mostly Cloudy 81 27 59 15 48 48 WNW 9 15 29.80 1009 10 16 N/A
2:55 pm 14:55 Partly Cloudy 81 27 54 12 39 39 WNW 12 19 29.79 1009 10 16 N/A
3:35 pm 15:35 Sunny 81 27 54 12 39 39 W 3 6 29.78 1009 10 16 N/A
3:55 pm 15:55 Sunny 82 28 55 13 40 40 WNW 10 17 29.77 1008 10 16 N/A
4:15 pm 16:15 Sunny 82 28 57 14 42 42 W 7 11 29.76 1008 10 16 N/A
4:35 pm 16:35 Sunny 82 28 57 14 42 42 WSW 6 9 29.75 1007 10 16 N/A
4:55 pm 16:55 Sunny 82 28 57 14 42 42 WSW 6 9 29.75 1007 10 16 N/A
5:15 pm 17:15 Sunny 82 28 59 15 45 45 WSW 3 6 29.75 1007 10 16 N/A
5:35 pm 17:35 Sunny 84 29 57 14 40 40 SW 6 9 29.74 1007 10 16 N/A
5:55 pm 17:55 Sunny 82 28 59 15 45 45 WSW 5 7 29.74 1007 10 16 N/A
6:15 pm 18:15 Sunny 84 29 57 14 40 40 WSW 6 9 29.73 1007 10 16 N/A
6:35 pm 18:35 Sunny 84 29 57 14 40 40 SW 3 6 29.73 1007 10 16 N/A
6:55 pm 18:55 Partly Cloudy 82 28 59 15 45 45 S 6 9 29.73 1007 10 16 N/A
7:15 pm 19:15 Partly Cloudy 82 28 61 16 48 48 S 5 7 29.72 1006 10 16 N/A
7:35 pm 19:35 Sunny 81 27 61 16 51 51 N N/A 29.72 1006 10 16 N/A
7:55 pm 19:55 Sunny 81 27 63 17 54 54 N N/A 29.73 1007 10 16 N/A
8:15 pm 20:15 Sunny 79 26 63 17 58 58 SSW 3 6 29.73 1007 10 16 N/A
8:35 pm 20:35 Partly Cloudy 79 26 63 17 58 58 SW 3 6 29.72 1007 10 16 N/A
8:55 pm 20:55 Partly Cloudy 77 25 64 18 65 65 SW 6 9 29.73 1007 10 16 N/A
9:15 pm 21:15 Clear with Thunderstorms 77 25 63 17 61 61 SSW 3 6 29.73 1007 10 16 N/A
9:35 pm 21:35 Mostly Cloudy with Thunderstorms 75 24 61 16 61 61 N 17 28 29.74 1007 10 16 N/A
9:55 pm 21:55 Cloudy 68 20 63 17 83 83 NNE 10 17 29.78 1009 3 5 N/A
10:15 pm 22:15 Cloudy with Heavy Thunderstorms 63 17 63 17 100 100 N N/A 29.82 1010 2 2 N/A
10:35 pm 22:35 Mostly Cloudy 63 17 61 16 94 94 N N/A 29.82 1010 10 16 N/A
10:55 pm 22:55 Mostly Cloudy with Light Rain 63 17 61 16 94 94 N 6 9 29.81 1009 10 16 N/A
11:15 pm 23:15 Mostly Cloudy 61 16 61 16 100 100 N N/A 29.82 1010 10 16 N/A
11:35 pm 23:35 Partly Cloudy 61 16 61 16 100 100 N N/A 29.83 1010 10 16 N/A
11:55 pm 23:55 Clear 61 16 61 16 100 100 N N/A 29.83 1010 10 16 N/A

Powered by AerisWeather